Location: Kuffner-Sternwarte
(48.2130°N, 16.2960°E)
Time: 05:14:23
(UTC+02:00)

Envisat - Pass Details

Date: 26 September 2024
Orbit: 762 x 764 km, 98.3° (Epoch: 04 October)

Event Time Altitude Azimuth Distance (km) Brightness Sun altitude
Rises 05:49:19 0° 1° (N) 3,238 6.4 -10.5°
Reaches altitude 10° 05:52:23 10° 342° (NNW) 2,307 5.4 -10.0°
Maximum altitude 05:55:31 17° 303° (WNW) 1,875 4.6 -9.5°
Enters shadow 05:58:18 11° 268° (W) 2,216 4.7 -9.0°
